Location: Unspecified
(35.6961°N, 0.0000°E)
Time: 02:44:55
(UTC+00:00)

S-56A Canister/Altair - Pass Details

Date: 09 October 2020
Orbit: 632 x 2500 km, 38.9° (Epoch: 20 October)

Event Time Altitude Azimuth Distance (km) Brightness Sun altitude
Rises 19:40:04 0° 283° (WNW) 6,037 13.4 -26.7°
Reaches altitude 10° 19:47:04 10° 262° (W) 4,748 12.4 -28.1°
Maximum altitude 19:52:30 14° 237° (WSW) 4,136 11.7 -29.2°
Drops below altitude 10° 19:57:21 10° 211° (SSW) 4,104 11.4 -30.1°
Sets 20:02:34 0° 187° (S) 4,673 11.5 -31.2°
